GAOFEN-8

Last updated on Thu Jul 03 2025 00:02:30 GMT+0000 (Coordinated Universal Time)

1 40701U 15030A 25183.55824456 .00010838 00000+0 34490-3 0 9991 2 40701 97.6907 354.6123 0012010 7.8392 352.3035 15.32708542557677
UTC large
Height (km)
Speed (km/s)
/
Latitude / Longitude
Inclination (degrees)
Orbital Period (minutes)
Azimuth
Elevation
Range (km)
Doppler Factor

Next 0 passes for location: London (51.5072 / 0.1276)

Sorry there are no passes over London.